| time (UTC) | temp F | wind direction | speed MPH | gust MPH | rain 1hr in | rain 24hr in | rain mn in | humidity % | barometer mb |
| 20260507105505 | 60 | 232 | 0.0 | 1.0 | 0.00 | 0.00 | 0.00 | 66 | 1016.6 |
| 20260507105005 | 59 | 267 | 3.0 | 3.0 | 0.00 | 0.00 | 0.00 | 70 | 1016.8 |
| 20260507104506 | 60 | 321 | 1.0 | 2.0 | 0.00 | 0.00 | 0.00 | 69 | 1016.8 |
| 20260507104005 | 60 | 14 | 1.0 | 4.0 | 0.00 | 0.00 | 0.00 | 71 | 1016.9 |
| 20260507103505 | 60 | 320 | 0.0 | 1.0 | 0.00 | 0.00 | 0.00 | 69 | 1016.9 |
| 20260507103005 | 60 | 305 | 1.0 | 3.0 | 0.00 | 0.00 | 0.00 | 67 | 1017.0 |
| 20260507102505 | 61 | 358 | 2.0 | 4.0 | 0.00 | 0.00 | 0.00 | 70 | 1016.7 |
| 20260507102006 | 61 | 74 | 3.0 | 7.0 | 0.00 | 0.00 | 0.00 | 71 | 1016.7 |
| 20260507101507 | 60 | 6 | 3.0 | 3.0 | 0.00 | 0.00 | 0.00 | 72 | 1016.8 |
| 20260507101004 | 60 | 73 | 2.0 | 3.0 | 0.00 | 0.00 | 0.00 | 73 | 1017.1 |
| 20260507100505 | 60 | 113 | 1.0 | 2.0 | 0.00 | 0.00 | 0.00 | 73 | 1016.7 |
| 20260507100005 | 60 | 89 | 0.0 | 1.0 | 0.00 | 0.00 | 0.00 | 73 | 1016.8 |
| 20260507095505 | 59 | 306 | 0.0 | 2.0 | 0.00 | 0.00 | 0.00 | 75 | 1016.7 |
| 20260507095006 | 58 | 340 | 1.0 | 3.0 | 0.00 | 0.00 | 0.00 | 77 | 1016.8 |
| 20260507094506 | 58 | 320 | 0.0 | 1.0 | 0.00 | 0.00 | 0.00 | 76 | 1016.8 |
| 20260507094006 | 59 | 74 | 0.0 | 1.0 | 0.00 | 0.00 | 0.00 | 75 | 1016.7 |
| 20260507093505 | 59 | 41 | 3.0 | 4.0 | 0.00 | 0.00 | 0.00 | 78 | 1016.7 |
| 20260507093004 | 58 | 9 | 1.0 | 2.0 | 0.00 | 0.00 | 0.00 | 78 | 1016.6 |
| 20260507092505 | 58 | 36 | 2.0 | 4.0 | 0.00 | 0.00 | 0.00 | 80 | 1016.7 |
| 20260507092004 | 57 | 298 | 2.0 | 2.0 | 0.00 | 0.00 | 0.00 | 79 | 1016.6 |
| 20260507091503 | 58 | 54 | 1.0 | 3.0 | 0.00 | 0.00 | 0.00 | 81 | 1016.6 |
| 20260507091005 | 57 | 15 | 2.0 | 4.0 | 0.00 | 0.00 | 0.00 | 82 | 1016.5 |
| 20260507090505 | 57 | 74 | 2.0 | 3.0 | 0.00 | 0.00 | 0.00 | 83 | 1016.8 |
| 20260507090005 | 56 | 93 | 1.0 | 2.0 | 0.00 | 0.00 | 0.00 | 83 | 1016.7 |
| 20260507085503 | 56 | 355 | 0.0 | 2.0 | 0.00 | 0.00 | 0.00 | 83 | 1016.5 |
| 20260507085005 | 55 | 304 | 3.0 | 4.0 | 0.00 | 0.00 | 0.00 | 83 | 1016.5 |
| 20260507084505 | 56 | 334 | 1.0 | 3.0 | 0.00 | 0.00 | 0.00 | 83 | 1016.5 |
| 20260507084005 | 55 | 48 | 1.0 | 4.0 | 0.00 | 0.00 | 0.00 | 85 | 1016.5 |
| 20260507083505 | 55 | 62 | 1.0 | 2.0 | 0.00 | 0.00 | 0.00 | 85 | 1016.7 |
| 20260507083005 | 55 | 344 | 0.0 | 2.0 | 0.00 | 0.00 | 0.00 | 85 | 1016.6 |
| 20260507082504 | 55 | 49 | 1.0 | 3.0 | 0.00 | 0.00 | 0.00 | 86 | 1016.6 |
| 20260507082005 | 55 | 23 | 1.0 | 3.0 | 0.00 | 0.00 | 0.00 | 86 | 1016.4 |
| 20260507081505 | 54 | 336 | 0.0 | 1.0 | 0.00 | 0.00 | 0.00 | 86 | 1016.3 |
| 20260507081005 | 54 | 8 | 3.0 | 3.0 | 0.00 | 0.00 | 0.00 | 88 | 1016.6 |
| 20260507080503 | 54 | 76 | 2.0 | 3.0 | 0.00 | 0.00 | 0.00 | 87 | 1016.3 |
| 20260507080005 | 54 | 44 | 2.0 | 4.0 | 0.00 | 0.00 | 0.00 | 87 | 1016.4 |
| 20260507075504 | 54 | 331 | 0.0 | 1.0 | 0.00 | 0.00 | 0.00 | 87 | 1016.4 |
| 20260507075005 | 53 | 37 | 1.0 | 4.0 | 0.00 | 0.00 | 0.00 | 88 | 1016.2 |
| 20260507074505 | 53 | 350 | 3.0 | 4.0 | 0.00 | 0.00 | 0.00 | 89 | 1016.6 |
| 20260507074006 | 53 | 55 | 1.0 | 2.0 | 0.00 | 0.00 | 0.00 | 90 | 1016.4 |
| 20260507073505 | 53 | 36 | 0.0 | 1.0 | 0.00 | 0.00 | 0.00 | 90 | 1016.4 |
| 20260507073005 | 52 | 38 | 0.0 | 2.0 | 0.00 | 0.00 | 0.00 | 91 | 1016.2 |
| 20260507072504 | 52 | 37 | 0.0 | 1.0 | 0.00 | 0.00 | 0.00 | 91 | 1016.3 |
| 20260507072006 | 52 | 24 | 0.0 | 1.0 | 0.00 | 0.00 | 0.00 | 91 | 1016.3 |
| 20260507071504 | 52 | 5 | 0.0 | 1.0 | 0.00 | 0.00 | 0.00 | 92 | 1016.2 |
| 20260507071005 | 51 | 31 | 1.0 | 1.0 | 0.00 | 0.00 | 0.00 | 92 | 1016.1 |
| 20260507070505 | 51 | 7 | 0.0 | 1.0 | 0.00 | 0.00 | 0.00 | 93 | 1016.0 |
| 20260507070009 | 51 | 20 | 1.0 | 2.0 | 0.00 | 0.00 | 0.00 | 93 | 1016.2 |
| 20260507065505 | 51 | 22 | 0.0 | 1.0 | 0.00 | 0.00 | 0.00 | 94 | 1016.1 |
| 20260507065005 | 50 | 321 | 0.0 | 1.0 | 0.00 | 0.00 | 0.00 | 95 | 1016.0 |
| 20260507064505 | 50 | 296 | 0.0 | 1.0 | 0.00 | 0.00 | 0.00 | 95 | 1016.0 |
| 20260507064005 | 49 | 296 | 0.0 | 1.0 | 0.00 | 0.00 | 0.00 | 95 | 1016.0 |
| 20260507063502 | 49 | 296 | 0.0 | 1.0 | 0.00 | 0.00 | 0.00 | 95 | 1016.0 |
| 20260507063004 | 49 | 296 | 1.0 | 1.0 | 0.00 | 0.00 | 0.00 | 96 | 1015.9 |
| 20260507062505 | 49 | 296 | 0.0 | 0.0 | 0.00 | 0.00 | 0.00 | 96 | 1016.0 |
| 20260507062005 | 49 | 296 | 0.0 | 0.0 | 0.00 | 0.00 | 0.00 | 96 | 1015.7 |
| 20260507061504 | 49 | 296 | 0.0 | 1.0 | 0.00 | 0.00 | 0.00 | 96 | 1015.8 |
| 20260507061004 | 49 | 296 | 1.0 | 1.0 | 0.00 | 0.00 | 0.00 | 96 | 1015.9 |
| 20260507060505 | 49 | 296 | 1.0 | 1.0 | 0.00 | 0.00 | 0.00 | 96 | 1015.7 |
| 20260507060006 | 49 | 296 | 0.0 | 0.0 | 0.00 | 0.00 | 0.00 | 96 | 1015.7 |
| 20260507055505 | 49 | 296 | 0.0 | 0.0 | 0.00 | 0.00 | 0.00 | 97 | 1015.8 |
| 20260507055005 | 48 | 296 | 0.0 | 0.0 | 0.00 | 0.00 | 0.00 | 97 | 1015.8 |
| 20260507054505 | 48 | 296 | 0.0 | 1.0 | 0.00 | 0.00 | 0.00 | 97 | 1015.7 |
| 20260507054005 | 48 | 296 | 0.0 | 1.0 | 0.00 | 0.00 | 0.00 | 97 | 1015.8 |
| 20260507053504 | 48 | 296 | 0.0 | 0.0 | 0.00 | 0.00 | 0.00 | 97 | 1015.7 |
| 20260507053005 | 48 | 296 | 0.0 | 0.0 | 0.00 | 0.00 | 0.00 | 97 | 1015.7 |
| 20260507052505 | 48 | 296 | 0.0 | 1.0 | 0.00 | 0.00 | 0.00 | 97 | 1015.5 |
| 20260507052006 | 47 | 296 | 0.0 | 1.0 | 0.00 | 0.00 | 0.00 | 97 | 1015.6 |
| 20260507051503 | 47 | 298 | 0.0 | 3.0 | 0.00 | 0.00 | 0.00 | 97 | 1015.5 |
| 20260507051005 | 47 | 286 | 2.0 | 3.0 | 0.00 | 0.00 | 0.00 | 97 | 1015.3 |
| 20260507050505 | 47 | 309 | 2.0 | 2.0 | 0.00 | 0.00 | 0.00 | 97 | 1015.2 |
| 20260507050006 | 47 | 307 | 1.0 | 3.0 | 0.00 | 0.00 | 0.00 | 97 | 1015.1 |
| 20260507045505 | 47 | 304 | 1.0 | 3.0 | 0.00 | 0.00 | 0.00 | 97 | 1015.3 |
| 20260507045005 | 47 | 305 | 2.0 | 2.0 | 0.00 | 0.00 | 0.00 | 97 | 1015.1 |
| 20260507044503 | 47 | 299 | 1.0 | 2.0 | 0.00 | 0.00 | 0.00 | 96 | 1015.1 |
| 20260507044005 | 47 | 299 | 0.0 | 1.0 | 0.00 | 0.00 | 0.00 | 96 | 1015.2 |
| 20260507043505 | 47 | 299 | 0.0 | 2.0 | 0.00 | 0.00 | 0.00 | 96 | 1015.0 |
| 20260507043006 | 47 | 298 | 1.0 | 1.0 | 0.00 | 0.00 | 0.00 | 96 | 1015.2 |
| 20260507042505 | 47 | 296 | 2.0 | 2.0 | 0.00 | 0.00 | 0.00 | 96 | 1015.2 |
| 20260507042006 | 47 | 300 | 1.0 | 1.0 | 0.00 | 0.00 | 0.00 | 96 | 1015.0 |
| 20260507041505 | 47 | 297 | 0.0 | 1.0 | 0.00 | 0.00 | 0.00 | 96 | 1014.9 |
| 20260507041004 | 47 | 293 | 0.0 | 0.0 | 0.00 | 0.00 | 0.00 | 96 | 1015.0 |
| 20260507040505 | 48 | 293 | 1.0 | 1.0 | 0.00 | 0.00 | 0.00 | 96 | 1014.9 |
| 20260507040005 | 48 | 293 | 0.0 | 1.0 | 0.00 | 0.00 | 0.00 | 96 | 1014.9 |
| 20260507035505 | 48 | 294 | 0.0 | 0.0 | 0.00 | 0.00 | 0.00 | 96 | 1015.0 |
| 20260507035006 | 48 | 302 | 0.0 | 0.0 | 0.00 | 0.00 | 0.00 | 95 | 1014.8 |
| 20260507034505 | 48 | 302 | 1.0 | 1.0 | 0.00 | 0.00 | 0.00 | 95 | 1014.8 |
| 20260507034005 | 48 | 302 | 0.0 | 1.0 | 0.00 | 0.00 | 0.00 | 95 | 1014.8 |
| 20260507033506 | 49 | 302 | 0.0 | 1.0 | 0.00 | 0.00 | 0.00 | 95 | 1014.9 |
| 20260507033004 | 49 | 302 | 0.0 | 0.0 | 0.00 | 0.00 | 0.00 | 95 | 1015.0 |
| 20260507032506 | 49 | 300 | 0.0 | 0.0 | 0.00 | 0.00 | 0.00 | 95 | 1014.9 |
| 20260507032004 | 49 | 298 | 0.0 | 0.0 | 0.00 | 0.00 | 0.00 | 95 | 1015.0 |
| 20260507031505 | 49 | 303 | 0.0 | 1.0 | 0.00 | 0.00 | 0.00 | 94 | 1015.0 |
| 20260507031005 | 49 | 303 | 0.0 | 1.0 | 0.00 | 0.00 | 0.00 | 94 | 1014.9 |
| 20260507030504 | 49 | 303 | 0.0 | 0.0 | 0.00 | 0.00 | 0.00 | 94 | 1014.9 |
| 20260507030005 | 49 | 304 | 0.0 | 0.0 | 0.00 | 0.00 | 0.00 | 94 | 1014.7 |
| 20260507025505 | 50 | 306 | 0.0 | 0.0 | 0.00 | 0.00 | 0.00 | 94 | 1015.0 |
| 20260507025006 | 50 | 306 | 1.0 | 2.0 | 0.00 | 0.00 | 0.00 | 94 | 1014.8 |
| 20260507024506 | 50 | 302 | 1.0 | 2.0 | 0.00 | 0.00 | 0.00 | 94 | 1014.9 |
| 20260507024005 | 50 | 298 | 0.0 | 2.0 | 0.00 | 0.00 | 0.00 | 94 | 1014.9 |
| 20260507023503 | 50 | 297 | 1.0 | 2.0 | 0.00 | 0.00 | 0.00 | 94 | 1014.8 |
| 20260507023005 | 50 | 299 | 1.0 | 2.0 | 0.00 | 0.00 | 0.00 | 94 | 1014.8 |
| 20260507022505 | 50 | 299 | 0.0 | 1.0 | 0.00 | 0.00 | 0.00 | 94 | 1015.0 |
| 20260507022005 | 50 | 292 | 1.0 | 2.0 | 0.00 | 0.00 | 0.00 | 94 | 1014.8 |
| 20260507021504 | 50 | 296 | 1.0 | 1.0 | 0.00 | 0.00 | 0.00 | 94 | 1014.8 |
| 20260507021005 | 50 | 291 | 0.0 | 1.0 | 0.00 | 0.00 | 0.00 | 94 | 1014.6 |
| 20260507020504 | 51 | 294 | 1.0 | 2.0 | 0.00 | 0.00 | 0.00 | 94 | 1014.6 |
| 20260507020005 | 50 | 284 | 1.0 | 2.0 | 0.00 | 0.00 | 0.00 | 94 | 1014.6 |
| 20260507015505 | 50 | 282 | 1.0 | 2.0 | 0.00 | 0.00 | 0.00 | 94 | 1014.6 |
| 20260507015006 | 51 | 286 | 0.0 | 1.0 | 0.00 | 0.00 | 0.00 | 94 | 1014.7 |
| 20260507014503 | 50 | 239 | 0.0 | 2.0 | 0.00 | 0.00 | 0.00 | 94 | 1014.5 |
| 20260507014005 | 50 | 264 | 1.0 | 2.0 | 0.00 | 0.00 | 0.00 | 94 | 1014.6 |
| 20260507013505 | 51 | 242 | 1.0 | 2.0 | 0.00 | 0.00 | 0.00 | 94 | 1014.4 |
| 20260507013005 | 50 | 234 | 1.0 | 2.0 | 0.00 | 0.00 | 0.00 | 94 | 1014.5 |
| 20260507012504 | 51 | 236 | 0.0 | 1.0 | 0.00 | 0.00 | 0.00 | 94 | 1014.7 |
| 20260507012005 | 51 | 213 | 0.0 | 1.0 | 0.00 | 0.00 | 0.00 | 94 | 1014.6 |
| 20260507011503 | 51 | 213 | 1.0 | 1.0 | 0.00 | 0.00 | 0.00 | 94 | 1014.4 |
| 20260507011004 | 51 | 217 | 0.0 | 0.0 | 0.00 | 0.00 | 0.00 | 94 | 1014.7 |
| 20260507010505 | 51 | 220 | 0.0 | 1.0 | 0.00 | 0.00 | 0.00 | 94 | 1014.5 |
| 20260507010005 | 51 | 227 | 1.0 | 1.0 | 0.00 | 0.00 | 0.00 | 93 | 1014.5 |
| 20260507005505 | 51 | 230 | 0.0 | 0.0 | 0.00 | 0.00 | 0.00 | 93 | 1014.5 |
| 20260507005005 | 51 | 230 | 0.0 | 0.0 | 0.00 | 0.00 | 0.00 | 93 | 1014.5 |
| 20260507004505 | 51 | 288 | 0.0 | 1.0 | 0.00 | 0.00 | 0.00 | 93 | 1014.4 |
| 20260507004004 | 51 | 288 | 0.0 | 1.0 | 0.00 | 0.00 | 0.00 | 93 | 1014.6 |
| 20260507003505 | 51 | 288 | 0.0 | 1.0 | 0.00 | 0.00 | 0.00 | 93 | 1014.4 |
| 20260507003005 | 51 | 288 | 0.0 | 1.0 | 0.00 | 0.00 | 0.00 | 93 | 1014.3 |
| 20260507002505 | 51 | 288 | 0.0 | 1.0 | 0.00 | 0.00 | 0.00 | 93 | 1014.7 |
| 20260507002005 | 51 | 289 | 0.0 | 0.0 | 0.00 | 0.00 | 0.00 | 93 | 1014.6 |
| 20260507001504 | 51 | 289 | 0.0 | 0.0 | 0.00 | 0.00 | 0.00 | 93 | 1014.5 |
| 20260507001004 | 51 | 289 | 0.0 | 0.0 | 0.00 | 0.00 | 0.00 | 93 | 1014.4 |
| 20260507000505 | 51 | 289 | 0.0 | 0.0 | 0.00 | 0.00 | 0.00 | 93 | 1014.6 |
| 20260507000005 | 51 | 289 | 0.0 | 0.0 | 0.00 | 0.00 | 0.00 | 93 | 1014.3 |
| 20260506235504 | 51 | 289 | 0.0 | 0.0 | 0.00 | 0.00 | 0.00 | 93 | 1014.3 |
| 20260506235005 | 51 | 288 | 0.0 | 1.0 | 0.00 | 0.00 | 0.00 | 93 | 1014.5 |
| 20260506234505 | 51 | 288 | 0.0 | 1.0 | 0.00 | 0.00 | 0.00 | 93 | 1014.3 |
| 20260506234005 | 51 | 294 | 0.0 | 2.0 | 0.00 | 0.00 | 0.00 | 93 | 1014.4 |
| 20260506233505 | 51 | 269 | 1.0 | 1.0 | 0.00 | 0.00 | 0.00 | 93 | 1014.4 |
| 20260506233006 | 51 | 284 | 0.0 | 1.0 | 0.00 | 0.00 | 0.00 | 93 | 1014.3 |
| 20260506232505 | 51 | 312 | 0.0 | 0.0 | 0.00 | 0.00 | 0.00 | 93 | 1014.3 |
| 20260506232006 | 51 | 312 | 0.0 | 1.0 | 0.00 | 0.00 | 0.00 | 93 | 1014.4 |
| 20260506231504 | 51 | 312 | 0.0 | 0.0 | 0.00 | 0.00 | 0.00 | 93 | 1014.3 |
| 20260506231005 | 51 | 312 | 0.0 | 0.0 | 0.00 | 0.00 | 0.00 | 93 | 1014.2 |
| 20260506230505 | 51 | 312 | 0.0 | 0.0 | 0.00 | 0.00 | 0.00 | 93 | 1014.2 |
| 20260506230005 | 51 | 312 | 0.0 | 0.0 | 0.00 | 0.00 | 0.00 | 93 | 1014.2 |
| 20260506225505 | 51 | 312 | 0.0 | 1.0 | 0.21 | 0.00 | 0.00 | 93 | 1014.3 |
| 20260506225004 | 51 | 312 | 0.0 | 1.0 | 0.21 | 0.00 | 0.00 | 94 | 1014.2 |
| 20260506224504 | 51 | 312 | 0.0 | 2.0 | 0.21 | 0.00 | 0.00 | 94 | 1014.3 |
| 20260506224004 | 51 | 312 | 0.0 | 1.0 | 0.21 | 0.00 | 0.00 | 94 | 1014.2 |
| 20260506223505 | 51 | 312 | 0.0 | 1.0 | 0.21 | 0.00 | 0.00 | 94 | 1014.2 |
| 20260506223005 | 51 | 312 | 0.0 | 1.0 | 0.21 | 0.00 | 0.00 | 94 | 1014.3 |
| 20260506222505 | 51 | 317 | 0.0 | 1.0 | 0.21 | 0.00 | 0.00 | 94 | 1014.4 |
| 20260506222005 | 51 | 313 | 1.0 | 1.0 | 0.21 | 0.00 | 0.00 | 94 | 1014.2 |
| 20260506221505 | 51 | 313 | 0.0 | 1.0 | 0.21 | 0.00 | 0.00 | 93 | 1014.0 |
| 20260506221004 | 51 | 311 | 1.0 | 1.0 | 0.21 | 0.00 | 0.00 | 93 | 1014.2 |
| 20260506220505 | 51 | 310 | 0.0 | 1.0 | 0.21 | 0.00 | 0.00 | 93 | 1014.2 |
| 20260506220005 | 51 | 307 | 0.0 | 1.0 | 0.00 | 0.00 | 0.21 | 92 | 1014.1 |
| 20260506215505 | 51 | 309 | 0.0 | 1.0 | 0.00 | 0.00 | 0.21 | 92 | 1014.2 |
| 20260506215004 | 51 | 297 | 0.0 | 1.0 | 0.00 | 0.00 | 0.21 | 92 | 1014.1 |
| 20260506214505 | 51 | 289 | 1.0 | 2.0 | 0.00 | 0.00 | 0.21 | 92 | 1013.9 |
| 20260506214005 | 51 | 302 | 2.0 | 2.0 | 0.00 | 0.00 | 0.21 | 92 | 1014.0 |
| 20260506213505 | 51 | 294 | 1.0 | 2.0 | 0.00 | 0.00 | 0.21 | 92 | 1014.0 |
| 20260506213004 | 51 | 297 | 0.0 | 2.0 | 0.00 | 0.00 | 0.21 | 92 | 1014.1 |
| 20260506212505 | 51 | 291 | 2.0 | 2.0 | 0.00 | 0.00 | 0.21 | 92 | 1014.0 |
| 20260506212005 | 51 | 296 | 1.0 | 1.0 | 0.00 | 0.00 | 0.21 | 92 | 1014.0 |
| 20260506211505 | 51 | 305 | 2.0 | 2.0 | 0.00 | 0.00 | 0.21 | 92 | 1014.0 |
| 20260506211004 | 51 | 309 | 1.0 | 1.0 | 0.00 | 0.00 | 0.21 | 92 | 1014.1 |
| 20260506210505 | 51 | 319 | 2.0 | 2.0 | 0.00 | 0.00 | 0.21 | 92 | 1014.0 |
| 20260506210005 | 51 | 321 | 1.0 | 2.0 | 0.00 | 0.00 | 0.21 | 91 | 1013.9 |
| 20260506205505 | 51 | 321 | 2.0 | 4.0 | 0.00 | 0.00 | 0.21 | 91 | 1014.0 |
| 20260506205005 | 51 | 313 | 1.0 | 2.0 | 0.00 | 0.00 | 0.21 | 91 | 1013.8 |
| 20260506204506 | 51 | 316 | 0.0 | 2.0 | 0.00 | 0.00 | 0.21 | 91 | 1013.8 |
| 20260506204006 | 51 | 299 | 2.0 | 3.0 | 0.00 | 0.00 | 0.21 | 91 | 1013.7 |
| 20260506203506 | 51 | 314 | 1.0 | 4.0 | 0.00 | 0.00 | 0.21 | 91 | 1013.8 |
| 20260506203004 | 51 | 296 | 3.0 | 6.0 | 0.00 | 0.00 | 0.21 | 91 | 1013.8 |
| 20260506202505 | 51 | 298 | 2.0 | 4.0 | 0.00 | 0.00 | 0.21 | 91 | 1013.7 |
| 20260506202005 | 51 | 338 | 4.0 | 6.0 | 0.00 | 0.00 | 0.21 | 90 | 1013.6 |
| 20260506201505 | 51 | 318 | 4.0 | 6.0 | 0.00 | 0.00 | 0.21 | 90 | 1013.7 |
| 20260506201004 | 52 | 308 | 3.0 | 3.0 | 0.00 | 0.00 | 0.21 | 90 | 1013.6 |
| 20260506200504 | 52 | 334 | 2.0 | 3.0 | 0.00 | 0.00 | 0.21 | 90 | 1013.5 |
| 20260506200005 | 52 | 330 | 1.0 | 1.0 | 0.00 | 0.00 | 0.21 | 90 | 1013.6 |
| 20260506195505 | 52 | 336 | 0.0 | 3.0 | 0.00 | 0.00 | 0.21 | 90 | 1013.4 |
| 20260506195005 | 52 | 345 | 2.0 | 3.0 | 0.00 | 0.00 | 0.21 | 90 | 1013.3 |
| 20260506194504 | 52 | 332 | 0.0 | 1.0 | 0.00 | 0.00 | 0.21 | 90 | 1013.3 |
| 20260506194005 | 52 | 317 | 0.0 | 1.0 | 0.00 | 0.00 | 0.21 | 90 | 1013.3 |
| 20260506193505 | 52 | 319 | 1.0 | 1.0 | 0.00 | 0.00 | 0.21 | 90 | 1013.2 |
| 20260506193004 | 52 | 325 | 0.0 | 1.0 | 0.00 | 0.00 | 0.21 | 89 | 1013.1 |
| 20260506192505 | 52 | 274 | 1.0 | 2.0 | 0.00 | 0.00 | 0.21 | 89 | 1013.0 |
| 20260506192005 | 52 | 331 | 1.0 | 1.0 | 0.00 | 0.00 | 0.21 | 89 | 1012.9 |
| 20260506191005 | 52 | 6 | 0.0 | 3.0 | 0.00 | 0.00 | 0.21 | 89 | 1012.9 |
| 20260506190504 | 52 | 348 | 2.0 | 3.0 | 0.00 | 0.00 | 0.21 | 88 | 1012.8 |
| 20260506190006 | 53 | 8 | 3.0 | 4.0 | 0.00 | 0.00 | 0.21 | 88 | 1012.7 |
| 20260506185505 | 53 | 16 | 2.0 | 3.0 | 0.00 | 0.00 | 0.21 | 88 | 1012.7 |
| 20260506185005 | 53 | 10 | 4.0 | 7.0 | 0.00 | 0.00 | 0.21 | 87 | 1012.6 |
| 20260506184505 | 53 | 318 | 5.0 | 9.0 | 0.00 | 0.00 | 0.21 | 87 | 1012.5 |
| 20260506184003 | 53 | 321 | 2.0 | 3.0 | 0.00 | 0.00 | 0.21 | 86 | 1012.4 |
| 20260506183504 | 54 | 51 | 2.0 | 4.0 | 0.00 | 0.00 | 0.21 | 85 | 1012.3 |
| 20260506183006 | 54 | 356 | 4.0 | 6.0 | 0.00 | 0.00 | 0.21 | 85 | 1012.4 |
| 20260506182505 | 54 | 357 | 3.0 | 7.0 | 0.00 | 0.00 | 0.21 | 85 | 1012.3 |
| 20260506182005 | 54 | 11 | 4.0 | 4.0 | 0.00 | 0.00 | 0.21 | 84 | 1012.3 |
| 20260506181504 | 54 | 24 | 4.0 | 8.0 | 0.00 | 0.00 | 0.21 | 84 | 1012.2 |
| 20260506181004 | 54 | 321 | 7.0 | 9.0 | 0.00 | 0.00 | 0.21 | 84 | 1012.1 |
| 20260506180505 | 55 | 344 | 3.0 | 7.0 | 0.00 | 0.00 | 0.21 | 83 | 1012.1 |
| 20260506180006 | 55 | 353 | 1.0 | 2.0 | 0.00 | 0.00 | 0.21 | 82 | 1012.1 |
| 20260506175505 | 55 | 330 | 1.0 | 2.0 | 0.00 | 0.00 | 0.21 | 81 | 1011.9 |
| 20260506175004 | 55 | 323 | 0.0 | 1.0 | 0.00 | 0.00 | 0.21 | 81 | 1011.8 |
| 20260506174505 | 55 | 344 | 1.0 | 2.0 | 0.00 | 0.00 | 0.21 | 80 | 1011.8 |
| 20260506174005 | 55 | 322 | 2.0 | 4.0 | 0.00 | 0.00 | 0.21 | 80 | 1011.7 |
| 20260506173505 | 55 | 343 | 0.0 | 3.0 | 0.00 | 0.00 | 0.21 | 80 | 1011.7 |
| 20260506173003 | 55 | 346 | 1.0 | 3.0 | 0.00 | 0.00 | 0.21 | 80 | 1011.6 |
| 20260506172504 | 55 | 284 | 2.0 | 4.0 | 0.00 | 0.00 | 0.21 | 79 | 1011.4 |
| 20260506172005 | 55 | 354 | 2.0 | 3.0 | 0.00 | 0.00 | 0.21 | 79 | 1011.6 |
| 20260506171504 | 56 | 319 | 2.0 | 4.0 | 0.00 | 0.00 | 0.21 | 77 | 1011.4 |
| 20260506171005 | 56 | 347 | 2.0 | 6.0 | 0.00 | 0.00 | 0.21 | 77 | 1011.4 |
| 20260506170504 | 56 | 12 | 2.0 | 6.0 | 0.00 | 0.00 | 0.21 | 78 | 1011.5 |
| 20260506170005 | 56 | 3 | 3.0 | 4.0 | 0.00 | 0.00 | 0.21 | 77 | 1011.4 |
| 20260506165504 | 56 | 354 | 7.0 | 9.0 | 0.00 | 0.00 | 0.21 | 76 | 1011.5 |
| 20260506165005 | 57 | 326 | 4.0 | 8.0 | 0.00 | 0.00 | 0.21 | 75 | 1011.4 |
| 20260506164505 | 58 | 349 | 5.0 | 10.0 | 0.00 | 0.00 | 0.21 | 73 | 1011.4 |
| 20260506164005 | 58 | 2 | 5.0 | 9.0 | 0.00 | 0.00 | 0.21 | 74 | 1011.5 |
| 20260506163505 | 58 | 338 | 6.0 | 11.0 | 0.00 | 0.00 | 0.21 | 73 | 1011.3 |
| 20260506163005 | 58 | 323 | 3.0 | 10.0 | 0.00 | 0.00 | 0.21 | 70 | 1011.4 |
| 20260506162505 | 58 | 329 | 5.0 | 8.0 | 0.00 | 0.00 | 0.21 | 70 | 1011.3 |
| 20260506162004 | 58 | 337 | 6.0 | 10.0 | 0.00 | 0.00 | 0.21 | 71 | 1011.4 |
| 20260506161505 | 58 | 356 | 6.0 | 7.0 | 0.00 | 0.00 | 0.21 | 73 | 1011.0 |
| 20260506161005 | 57 | 349 | 5.0 | 9.0 | 0.00 | 0.00 | 0.21 | 73 | 1011.4 |
| 20260506160504 | 57 | 54 | 2.0 | 8.0 | 0.00 | 0.00 | 0.21 | 72 | 1011.2 |
| 20260506160005 | 57 | 338 | 2.0 | 8.0 | 0.00 | 0.00 | 0.21 | 73 | 1011.3 |
| 20260506155504 | 57 | 301 | 4.0 | 8.0 | 0.00 | 0.00 | 0.21 | 71 | 1011.4 |
| 20260506155004 | 57 | 13 | 6.0 | 10.0 | 0.00 | 0.00 | 0.21 | 74 | 1011.3 |
| 20260506154505 | 57 | 347 | 7.0 | 9.0 | 0.00 | 0.00 | 0.21 | 73 | 1011.2 |
| 20260506154005 | 58 | 350 | 4.0 | 6.0 | 0.00 | 0.00 | 0.21 | 74 | 1011.0 |
| 20260506153505 | 58 | 2 | 6.0 | 9.0 | 0.00 | 0.00 | 0.21 | 75 | 1011.2 |
| 20260506153005 | 58 | 354 | 1.0 | 7.0 | 0.00 | 0.00 | 0.21 | 74 | 1011.1 |
| 20260506152504 | 58 | 328 | 4.0 | 6.0 | 0.00 | 0.00 | 0.21 | 74 | 1011.2 |
| 20260506152005 | 58 | 355 | 5.0 | 8.0 | 0.00 | 0.00 | 0.21 | 74 | 1011.2 |
| 20260506151503 | 58 | 352 | 7.0 | 10.0 | 0.00 | 0.00 | 0.21 | 73 | 1011.3 |
| 20260506151004 | 58 | 351 | 8.0 | 11.0 | 0.00 | 0.00 | 0.21 | 73 | 1011.3 |
| 20260506150505 | 58 | 306 | 5.0 | 9.0 | 0.00 | 0.00 | 0.21 | 74 | 1011.0 |
| 20260506150004 | 57 | 294 | 7.0 | 10.0 | 0.00 | 0.00 | 0.21 | 74 | 1011.2 |
| 20260506145505 | 58 | 4 | 6.0 | 9.0 | 0.00 | 0.00 | 0.21 | 76 | 1011.2 |
| 20260506144504 | 58 | 319 | 3.0 | 6.0 | 0.00 | 0.00 | 0.21 | 73 | 1011.1 |
| 20260506144004 | 58 | 350 | 3.0 | 10.0 | 0.00 | 0.00 | 0.21 | 73 | 1011.3 |
| 20260506143505 | 57 | 337 | 4.0 | 9.0 | 0.00 | 0.00 | 0.21 | 73 | 1011.3 |
| 20260506143005 | 57 | 321 | 2.0 | 10.0 | 0.00 | 0.00 | 0.21 | 73 | 1011.2 |
| 20260506142504 | 57 | 4 | 3.0 | 7.0 | 0.00 | 0.00 | 0.21 | 75 | 1011.3 |
| 20260506142005 | 57 | 308 | 4.0 | 6.0 | 0.00 | 0.00 | 0.21 | 77 | 1011.2 |
| 20260506141505 | 57 | 310 | 2.0 | 7.0 | 0.00 | 0.00 | 0.21 | 75 | 1011.1 |
| 20260506141006 | 57 | 334 | 5.0 | 8.0 | 0.00 | 0.00 | 0.21 | 73 | 1011.2 |
| 20260506140505 | 57 | 8 | 5.0 | 7.0 | 0.00 | 0.00 | 0.21 | 73 | 1011.1 |
| 20260506140006 | 57 | 275 | 5.0 | 9.0 | 0.00 | 0.00 | 0.21 | 74 | 1011.2 |
| 20260506135505 | 57 | 303 | 4.0 | 4.0 | 0.00 | 0.00 | 0.21 | 74 | 1011.2 |
| 20260506135004 | 57 | 356 | 2.0 | 3.0 | 0.00 | 0.00 | 0.21 | 74 | 1011.3 |
| 20260506134505 | 57 | 317 | 2.0 | 6.0 | 0.00 | 0.00 | 0.21 | 73 | 1011.3 |
| 20260506134005 | 58 | 353 | 3.0 | 6.0 | 0.00 | 0.00 | 0.21 | 72 | 1011.2 |
| 20260506133505 | 59 | 277 | 4.0 | 8.0 | 0.00 | 0.00 | 0.21 | 74 | 1011.3 |
| 20260506133006 | 58 | 345 | 2.0 | 4.0 | 0.00 | 0.00 | 0.21 | 74 | 1011.0 |
| 20260506132505 | 57 | 358 | 3.0 | 6.0 | 0.00 | 0.00 | 0.21 | 75 | 1011.3 |
| 20260506132005 | 57 | 317 | 2.0 | 7.0 | 0.00 | 0.00 | 0.21 | 75 | 1011.1 |
| 20260506131504 | 57 | 328 | 1.0 | 6.0 | 0.00 | 0.00 | 0.21 | 75 | 1011.4 |
| 20260506131004 | 56 | 302 | 2.0 | 7.0 | 0.00 | 0.00 | 0.21 | 75 | 1011.2 |
| 20260506130505 | 56 | 290 | 4.0 | 4.0 | 0.00 | 0.00 | 0.00 | ||
| 20260506130005 | 57 | 343 | 2.0 | 3.0 | 0.00 | 0.00 | 0.21 | 77 | 1011.4 |
| 20260506125505 | 57 | 11 | 4.0 | 10.0 | 0.00 | 0.00 | 0.21 | 76 | 1011.1 |
| 20260506125006 | 58 | 347 | 4.0 | 6.0 | 0.00 | 0.00 | 0.21 | 75 | 1011.1 |
| 20260506124506 | 58 | 0 | 4.0 | 4.0 | 0.00 | 0.00 | 0.21 | 75 | 1011.0 |
| 20260506124005 | 57 | 12 | 3.0 | 7.0 | 0.00 | 0.00 | 0.21 | 76 | 1011.0 |
| 20260506123505 | 56 | 307 | 2.0 | 8.0 | 0.00 | 0.00 | 0.21 | 78 | 1010.9 |
| 20260506123006 | 57 | 333 | 5.0 | 11.0 | 0.00 | 0.00 | 0.21 | 77 | 1011.1 |
| 20260506122505 | 57 | 301 | 5.0 | 9.0 | 0.00 | 0.00 | 0.21 | 76 | 1011.0 |
| 20260506122005 | 57 | 344 | 3.0 | 9.0 | 0.00 | 0.00 | 0.21 | 76 | 1011.0 |
| 20260506121505 | 56 | 327 | 2.0 | 9.0 | 0.00 | 0.00 | 0.21 | 79 | 1011.0 |
| 20260506121004 | 56 | 350 | 6.0 | 15.0 | 0.00 | 0.00 | 0.21 | 79 | 1010.7 |
| 20260506120505 | 56 | 339 | 6.0 | 9.0 | 0.00 | 0.00 | 0.21 | 80 | 1010.9 |
| 20260506120005 | 56 | 293 | 3.0 | 9.0 | 0.00 | 0.00 | 0.21 | 80 | 1010.7 |
| 20260506115504 | 56 | 341 | 7.0 | 10.0 | 0.00 | 0.00 | 0.21 | 77 | 1011.0 |
| 20260506115005 | 56 | 7 | 5.0 | 9.0 | 0.00 | 0.00 | 0.21 | 77 | 1011.0 |
| 20260506114505 | 56 | 336 | 8.0 | 14.0 | 0.00 | 0.00 | 0.21 | 77 | 1010.8 |
| 20260506114005 | 56 | 291 | 4.0 | 7.0 | 0.00 | 0.00 | 0.21 | 80 | 1010.8 |
| 20260506113505 | 56 | 331 | 3.0 | 8.0 | 0.00 | 0.00 | 0.21 | 78 | 1011.0 |
| 20260506113005 | 56 | 347 | 3.0 | 9.0 | 0.00 | 0.00 | 0.21 | 79 | 1010.9 |
| 20260506112504 | 55 | 321 | 4.0 | 9.0 | 0.00 | 0.00 | 0.21 | 82 | 1011.0 |
| 20260506112004 | 55 | 335 | 4.0 | 9.0 | 0.00 | 0.00 | 0.21 | 83 | 1010.8 |
| 20260506111504 | 55 | 313 | 6.0 | 9.0 | 0.00 | 0.00 | 0.21 | 83 | 1010.8 |
| 20260506111004 | 55 | 324 | 4.0 | 6.0 | 0.00 | 0.00 | 0.21 | 85 | 1010.7 |
| 20260506110505 | 55 | 3 | 2.0 | 6.0 | 0.00 | 0.00 | 0.21 | 85 | 1010.9 |
| 20260506110005 | 55 | 351 | 5.0 | 6.0 | 0.00 | 0.00 | 0.21 | 84 | 1010.8 |